Wichita, KS

2:43 PM CST on February 11, 2016 (GMT -0600)
Wichita Eisenhower National Airport

Weather History for KICT - May, 2012

Change the Weather History Date:

Sunday, May 6, 2012

  Actual Average Record
Temperature  
Mean Temperature 76 °F 63 °F  
Max Temperature 86 °F 74 °F 99 °F (2014)
Min Temperature 65 °F 52 °F 33 °F (1944)
Degree Days  
Heating Degree Days 0 4  
Month to date heating degree days 0 27  
Since 1 July heating degree days 3605 4535  
Cooling Degree Days 11 2  
Month to date cooling degree days 69 10  
Year to date cooling degree days 170 36  
Growing Degree Days 26 (Base 50)    
Moisture  
Dew Point 68 °F    
Average Humidity 77    
Maximum Humidity 93    
Minimum Humidity 61    
Precipitation  
Precipitation 0.00 in 0.14 in 1.88 in (1930)
Month to date precipitation 0.00 0.79  
Year to date precipitation 12.87 8.08  
Snow  
Snow 0.00 in 0.00 in T in (2008)
Month to date snowfall 0.0 0.0  
Since 1 July snowfall 3.0 14.9  
Snow Depth 0.00 in    
Sea Level Pressure  
Sea Level Pressure 29.78 in    
Wind  
Wind Speed 11 mph (ESE)    
Max Wind Speed 26 mph    
Max Gust Speed 31 mph    
Visibility 8 miles    
Events      
T = Trace of Precipitation, MM = Missing Value Source: NWS Daily Summary

Daily Weather History Graph

Daily Weather History Graph

Search for Another Location

Airport or City:

Trip Planner

Search our weather history database for the weather conditions in past years. The results will help you decide how hot, cold, wet, or windy it might be!

Date:

Astronomy

May. 06, 2012 Rise Set
Actual Time 6:28 AM CDT 8:24 PM CDT
Civil Twilight 5:59 AM CDT 8:53 PM CDT
Nautical Twilight 5:24 AM CDT 9:28 PM CDT
Astronomical Twilight 4:47 AM CDT 10:06 PM CDT
Moon 9:30 PM CDT (5/6) 6:40 AM CDT (5/6)
Length of Visible Light 14h 54m
Length of Day
13h 56m
Full, 100% of the Moon is Illuminated
May 6
Full
May 12
Last Quarter
May 20
New
May 28
First Quarter
Jun 4
Full

Hourly Weather History & Observations

Time (CDT) Temp. Heat Index Dew Point Humidity Pressure Visibility Wind Dir Wind Speed Gust Speed Precip Events Conditions
12:53 AM 75.0 °F - 71.1 °F 87% 29.73 in 7.0 mi SSE 13.8 mph - N/A   Scattered Clouds
1:53 AM 73.0 °F - 71.1 °F 93% 29.72 in 6.0 mi SSE 12.7 mph - N/A   Scattered Clouds
2:53 AM 73.4 °F - 71.6 °F 94% 29.75 in 6.0 mi SSE 11.5 mph - N/A   Partly Cloudy
3:53 AM 73.0 °F - 70.0 °F 90% 29.70 in 6.0 mi SSE 12.7 mph - N/A   Scattered Clouds
4:53 AM 72.0 °F - 69.1 °F 91% 29.69 in 6.0 mi SSE 10.4 mph - N/A   Scattered Clouds
5:53 AM 71.1 °F - 69.1 °F 93% 29.69 in 6.0 mi SSE 9.2 mph - N/A   Scattered Clouds
6:53 AM 71.1 °F - 69.1 °F 93% 29.69 in 6.0 mi SSE 10.4 mph - N/A   Scattered Clouds
7:53 AM 72.0 °F - 69.1 °F 91% 29.71 in 8.0 mi SSE 11.5 mph 19.6 mph N/A   Mostly Cloudy
8:30 AM 73.4 °F - 69.8 °F 88% 29.81 in 7.0 mi NNW 4.6 mph - N/A   Mostly Cloudy
8:53 AM 75.0 °F - 70.0 °F 84% 29.76 in 8.0 mi Variable 3.5 mph - N/A   Overcast
9:43 AM 75.2 °F - 71.6 °F 89% 29.81 in 8.0 mi SSE 8.1 mph - N/A   Mostly Cloudy
9:53 AM 77.0 °F - 71.1 °F 82% 29.76 in 8.0 mi SSE 5.8 mph - N/A   Mostly Cloudy
10:53 AM 78.1 °F - 71.1 °F 79% 29.77 in 8.0 mi SE 6.9 mph - N/A   Mostly Cloudy
11:53 AM 80.1 °F 83.6 °F 71.1 °F 74% 29.76 in 8.0 mi ESE 8.1 mph - N/A   Mostly Cloudy
12:53 PM 82.0 °F 85.5 °F 69.1 °F 65% 29.76 in 10.0 mi SSW 3.5 mph - N/A   Mostly Cloudy
1:53 PM 84.0 °F 88.4 °F 70.0 °F 63% 29.76 in 10.0 mi ENE 3.5 mph - N/A   Mostly Cloudy
2:53 PM 84.0 °F 87.8 °F 69.1 °F 61% 29.78 in 10.0 mi East 6.9 mph - N/A   Mostly Cloudy
3:53 PM 82.9 °F 87.0 °F 70.0 °F 65% 29.77 in 10.0 mi ESE 9.2 mph - N/A   Overcast
4:53 PM 81.0 °F 84.9 °F 71.1 °F 72% 29.77 in 10.0 mi North 12.7 mph - N/A   Mostly Cloudy
5:53 PM 80.1 °F 83.2 °F 70.0 °F 71% 29.78 in 10.0 mi NNE 17.3 mph - N/A   Overcast
6:53 PM 77.0 °F - 66.9 °F 71% 29.80 in 10.0 mi North 18.4 mph 27.6 mph N/A   Overcast
7:53 PM 72.0 °F - 62.1 °F 71% 29.82 in 10.0 mi North 17.3 mph 29.9 mph N/A   Mostly Cloudy
8:53 PM 71.1 °F - 62.1 °F 73% 29.84 in 10.0 mi North 17.3 mph 28.8 mph N/A   Scattered Clouds
9:53 PM 69.1 °F - 60.1 °F 73% 29.87 in 10.0 mi North 16.1 mph - N/A   Scattered Clouds
10:53 PM 66.9 °F - 60.1 °F 79% 29.89 in 10.0 mi NNE 17.3 mph 25.3 mph N/A   Mostly Cloudy
11:44 PM 66.2 °F - 59.0 °F 78% 29.95 in 10.0 mi North 18.4 mph 26.5 mph N/A   Overcast
11:53 PM 66.9 °F - 59.0 °F 76% 29.91 in 10.0 mi North 15.0 mph - N/A   Mostly Cloudy